Home > Weather > Baku > Past weeks

Flag for Azerbaijan Past Weather in Baku, Azerbaijan — Yesterday and Last 2 Weeks

Now
75 °F

Sunny.


Feels Like: 78 °F
Forecast: 68 / 82 °F
Wind: 17 mph from Northwest

Location: Baku / Bine Airport

Current Time: May 31, 2016 at 8:10:11 AM

Latest Report: May 31, 2016 at 7:30 AM


Visibility: 10 mi

Pressure: 29.74 "Hg

Humidity: 54%

Dew Point: 57 °F

Location of BakuLocation

Past Weather in Baku — Graph

°F

Baku Temperature Yesterday

Maximum temperature yesterday: 79 °F (at 9:00 AM)
Minimum temperature yesterday: 70 °F (at 12:00 AM)
Average temperature yesterday: 73 °F

High & Low Weather Summary for the Past Weeks

 TemperatureHumidityPressure
High91 °F (May 29, 3:00 PM)100% (May 19, 6:00 AM)30.12 "Hg (May 19, 6:00 AM)
Low54 °F (May 22, 3:30 AM)26% (May 29, 3:00 PM)29.62 "Hg (May 24, 6:00 PM)
Average70 °F70%29.83 "Hg
* Reported May 16 6:00 AM — May 31 6:30 AM, Baku, Weather by CustomWeather, © 2016

Note: Actual official high and low records may vary slightly from our data, if they occured in-between our weather recording intervals... More about our weather records

Advertising

Baku Weather History for the Previous 24 Hours

Scroll right to see more
 ConditionsComfort  
Time TempWeatherWind HumidityBarometerVisibility
6:30 AM
Tue, May 31
73 °FSunny.8 mph57%29.74 "Hg10 mi
6:00 AM68 °FSunny.6 mph73%29.74 "Hg10 mi
5:30 AM66 °FSunny.7 mph73%29.74 "Hg10 mi
5:00 AM70 °FClear.7 mph64%29.71 "Hg10 mi
4:30 AM72 °FClear.9 mph65%29.71 "Hg10 mi
4:00 AM70 °FClear.7 mph69%29.71 "Hg10 mi
3:30 AM70 °FClear.5 mph64%29.71 "Hg10 mi
3:00 AM70 °FClear.3 mph69%29.71 "Hg10 mi
2:30 AM72 °FClear.6 mph65%29.71 "Hg10 mi
2:00 AM70 °FClear.7 mph69%29.71 "Hg10 mi
1:30 AM68 °FClear.6 mph73%29.71 "Hg10 mi
1:00 AM70 °FClear.6 mph73%29.71 "Hg10 mi
12:30 AM70 °FClear.8 mph73%29.71 "Hg10 mi
12:00 AM72 °FClear.9 mph69%29.71 "Hg10 mi
11:30 PM
Mon, May 30
72 °FClear.13 mph69%29.71 "Hg10 mi
11:00 PM73 °FClear.15 mph61%29.74 "Hg10 mi
10:30 PM73 °FClear.15 mph65%29.74 "Hg10 mi
10:00 PM73 °FClear.14 mph65%29.77 "Hg10 mi
9:30 PM72 °FClear.12 mph69%29.74 "Hg10 mi
9:00 PM72 °FClear.15 mph69%29.74 "Hg10 mi
8:30 PM72 °FClear.21 mph69%29.71 "Hg10 mi
8:00 PM72 °FSunny.23 mph69%29.71 "Hg10 mi
7:30 PM73 °FSunny.25 mph65%29.71 "Hg10 mi
7:00 PM73 °FSunny.28 mph65%29.71 "Hg10 mi
6:30 PM73 °FSunny.25 mph65%29.71 "Hg10 mi
6:00 PM73 °FSunny.25 mph65%29.71 "Hg10 mi
5:30 PM72 °FSunny.30 mph69%29.71 "Hg10 mi
5:00 PM73 °FSunny.24 mph65%29.71 "Hg10 mi
4:30 PM75 °FSunny.24 mph61%29.68 "Hg10 mi
4:00 PM75 °FSunny.25 mph61%29.68 "Hg10 mi
3:00 PM75 °FSunny.26 mph61%29.68 "Hg10 mi
2:30 PM75 °FSunny.26 mph61%29.68 "Hg10 mi
2:00 PM75 °FSunny.28 mph61%29.68 "Hg10 mi
1:30 PM77 °FSunny.26 mph57%29.68 "Hg10 mi
1:00 PM75 °FSunny.28 mph61%29.68 "Hg10 mi
12:30 PM75 °FSunny.25 mph61%29.68 "Hg10 mi
12:00 PM77 °FSunny.30 mph57%29.68 "Hg10 mi
11:30 AM77 °FSunny.28 mph54%29.68 "Hg10 mi
11:00 AM77 °FSunny.30 mph54%29.68 "Hg10 mi
10:30 AM77 °FSunny.28 mph57%29.68 "Hg10 mi
10:00 AM77 °FSunny.24 mph57%29.68 "Hg10 mi
9:30 AM77 °FSunny.25 mph51%29.68 "Hg10 mi
9:00 AM79 °FSunny.24 mph48%29.65 "Hg10 mi
8:30 AM77 °FSunny.23 mph51%29.68 "Hg10 mi
8:00 AM77 °FSunny.21 mph54%29.65 "Hg10 mi
Weather by CustomWeather, © 2016

See weather overviewHow to use our weather pages